TimeEDT,TemperatureF,Dew PointF,Humidity,Sea Level PressureIn,VisibilityMPH,Wind Direction,Wind SpeedMPH,Gust SpeedMPH,PrecipitationIn,Events,Conditions,WindDirDegrees,DateUTC
12:54 AM,44.1,36.0,73,29.86,10.0,Variable,4.6,-,N/A,,Overcast,0,2012-10-06 04:54:00
1:54 AM,44.1,36.0,73,29.86,10.0,West,4.6,-,N/A,,Overcast,280,2012-10-06 05:54:00
2:54 AM,44.1,36.0,73,29.85,10.0,SSW,3.5,-,N/A,,Overcast,210,2012-10-06 06:54:00
3:54 AM,44.1,30.9,60,29.83,10.0,West,5.8,-,N/A,,Overcast,270,2012-10-06 07:54:00
4:54 AM,43.0,30.0,60,29.83,10.0,West,5.8,-,N/A,,Overcast,270,2012-10-06 08:54:00
5:54 AM,43.0,30.9,62,29.83,10.0,Variable,3.5,-,N/A,,Overcast,0,2012-10-06 09:54:00
6:52 AM,42.8,33.8,70,29.82,10.0,WSW,8.1,-,0.00,,Overcast,250,2012-10-06 10:52:00
6:54 AM,42.1,33.1,70,29.84,10.0,West,10.4,16.1,0.00,,Overcast,260,2012-10-06 10:54:00
7:27 AM,41.0,33.8,76,29.82,10.0,West,4.6,-,0.00,,Overcast,260,2012-10-06 11:27:00
7:45 AM,41.0,33.8,76,29.83,10.0,West,9.2,-,0.00,,Overcast,260,2012-10-06 11:45:00
7:54 AM,41.0,34.0,76,29.84,10.0,WSW,6.9,16.1,0.00,,Overcast,250,2012-10-06 11:54:00
8:27 AM,41.0,35.6,81,29.83,10.0,West,12.7,18.4,N/A,,Overcast,260,2012-10-06 12:27:00
8:54 AM,42.1,36.0,79,29.85,10.0,WSW,10.4,18.4,N/A,,Overcast,240,2012-10-06 12:54:00
9:54 AM,44.1,36.0,73,29.86,10.0,West,9.2,-,N/A,,Mostly Cloudy,260,2012-10-06 13:54:00
10:54 AM,44.1,34.0,68,29.87,10.0,WNW,10.4,24.2,0.00,,Overcast,290,2012-10-06 14:54:00
11:54 AM,46.0,34.0,63,29.89,10.0,WNW,12.7,21.9,0.00,,Mostly Cloudy,290,2012-10-06 15:54:00
12:54 PM,44.1,36.0,73,29.92,10.0,WNW,11.5,18.4,0.00,Rain,Light Rain,300,2012-10-06 16:54:00
1:54 PM,50.0,30.9,48,29.92,10.0,West,10.4,25.3,0.00,,Mostly Cloudy,270,2012-10-06 17:54:00
2:54 PM,46.0,32.0,58,29.94,10.0,WNW,11.5,27.6,0.00,Rain,Light Rain,290,2012-10-06 18:54:00
3:54 PM,48.0,30.0,50,29.95,10.0,NNW,18.4,29.9,0.00,,Scattered Clouds,330,2012-10-06 19:54:00
4:54 PM,44.1,33.1,65,29.98,10.0,NW,11.5,18.4,N/A,,Scattered Clouds,320,2012-10-06 20:54:00
5:54 PM,46.0,30.0,54,30.00,10.0,NNW,12.7,19.6,N/A,,Overcast,330,2012-10-06 21:54:00
6:54 PM,44.1,28.9,55,30.02,10.0,WNW,11.5,20.7,N/A,,Mostly Cloudy,300,2012-10-06 22:54:00
7:54 PM,39.9,30.9,70,30.05,10.0,NNW,11.5,21.9,N/A,,Scattered Clouds,330,2012-10-06 23:54:00
8:54 PM,37.9,30.9,76,30.07,10.0,West,3.5,-,N/A,,Clear,280,2012-10-07 00:54:00
9:54 PM,37.9,28.9,70,30.09,10.0,WNW,3.5,-,N/A,,Scattered Clouds,290,2012-10-07 01:54:00
10:54 PM,37.0,32.0,82,30.10,9.0,NNW,9.2,-,0.00,Rain,Light Rain,340,2012-10-07 02:54:00
11:04 PM,37.4,33.8,87,30.08,7.0,NW,8.1,16.1,0.01,Rain,Light Rain,310,2012-10-07 03:04:00
11:28 PM,35.6,33.8,93,30.08,10.0,NW,6.9,-,0.02,,Overcast,310,2012-10-07 03:28:00
11:54 PM,36.0,34.0,93,30.10,10.0,WNW,3.5,-,0.02,,Overcast,290,2012-10-07 03:54:00